Regional Weather Roundup
Issued by NWS Upton, NY

Current Version | Previous Version | Graphics & Text | Print | Product List | Glossary Off
Versions: 1 2 3 4 5 6 7 8 9 10 11 12 13 14 15 16 17 18 19 20 21 22 23 24 25 26 27

000
ASUS41 KOKX 251509
RWROKX

REGIONAL WEATHER ROUNDUP
NATIONAL WEATHER SERVICE NEW YORK NY
1100 AM EDT SUN JUN 25 2017

NOTE: "FAIR" INDICATES FEW OR NO CLOUDS BELOW 12,000 FEET WITH NO
SIGNIFICANT WEATHER AND/OR OBSTRUCTIONS TO VISIBILITY.

NYZ071-072-176-178-NJZ106-104-251600-
NEW YORK CITY METRO AREA

CITY           SKY/WX    TMP DP  RH WIND       PRES   REMARKS
Central Park   SUNNY     78  55  44 CALM      30.02R
Bronx Bot Gard   N/A     79  52  38 NE1       30.00S
LaGuardia APRT PTSUNNY   82  51  34 W8        29.98S
Kennedy INTL   PTSUNNY   79  61  53 S8        30.00S
Breezy Point     N/A     73 N/A N/A S6          N/A
Newark/Liberty PTSUNNY   80  58  46 S10       29.98F
Teterboro      SUNNY     80  55  42 W7        29.97F
$$

NYZ177-179-078>081-251600-
LONG ISLAND NEW YORK

CITY           SKY/WX    TMP DP  RH WIND       PRES   REMARKS
Jones Beach      N/A     75 N/A N/A S7          N/A
Matinecock PT  NOT AVBL
Farmingdale    NOT AVBL
MacArthur/ISP  MOSUNNY   81  55  40 VRB3      29.99R
Shirley        MOSUNNY   79  60  52 S5        29.99S
Mt Sinai Harb    N/A    N/A N/A N/A NW2         N/A
Westhampton    SUNNY     78  57  48 S8        30.00S
East Hampton   FAIR      77  55  45 W6        29.98S
Montauk          N/A     75  54  47 W5        29.99F
$$

NYZ052-065-067-251600-
HUDSON VALLEY

CITY           SKY/WX    TMP DP  RH WIND       PRES   REMARKS
White Plains   NOT AVBL
Larchmont Harb   N/A     72 N/A N/A SE5         N/A
Croton O-T Hud   N/A     77 N/A N/A SW2         N/A
Newburgh       MOSUNNY   75  61  60 NW14      30.00F
Montgomery     MOSUNNY   77  55  46 W8        29.98F
Poughkeepsie   SUNNY     76  58  53 VRB3      29.96F
Albany         PTSUNNY   73  57  57 S6        29.97F
$$

NJZ001-105-106-008-010-013-015-019>022-104-251600-
NEW JERSEY

CITY           SKY/WX    TMP DP  RH WIND       PRES   REMARKS
Newark/Liberty PTSUNNY   80  58  46 S10       29.98F
Teterboro      SUNNY     80  55  42 W7        29.97F
Caldwell       MOSUNNY   80  55  42 VRB3      30.00S
Somerville     PTSUNNY   79  59  50 VRB3      29.98S
Linden         FAIR      80  52  37 CALM      29.99S
Perth Amboy      N/A     75 N/A N/A SE6         N/A
Sussex         MOSUNNY   77  59  53 VRB5      29.99F
Andover          N/A     77  55  46 SW9       30.00F
Trenton        SUNNY     79  55  43 SW5       30.00S
Millville      MOSUNNY   79  63  57 SW3       30.01S
Atlantic City  MOSUNNY   83  57  41 VRB3      30.00S
Wrightstown    MOSUNNY  N/A N/A N/A W3          N/A
Toms River     MOSUNNY   82  54  37 CALM      30.01S
Belmar         MOSUNNY   78  57  48 VRB3      30.02R
$$

PAZ047>061-062-071-251600-
EASTERN PENNSYLVANIA

CITY           SKY/WX    TMP DP  RH WIND       PRES   REMARKS
Philadelphia   PTSUNNY   80  58  46 SE7       30.01S
Allentown      SUNNY     79  58  48 S6        30.00F
Scranton       MOSUNNY   75  58  55 W8        30.01S
$$

CTZ002-004>006-009-010-012-RIZ004-006-007-MAZ004-011-015-251600-
SOUTHERN NEW ENGLAND
 IN CT

CITY           SKY/WX    TMP DP  RH WIND       PRES   REMARKS
Bradley INTL   MOSUNNY   78  56  46 W6        29.97S
Hartford       SUNNY     78  57  48 VRB5      29.96F
Danbury        SUNNY     77  56  48 VRB6      30.00S
Wtrbury/Oxford MOSUNNY   75  54  46 W5        30.01S
Bridgeport     MOSUNNY   77  61  57 S9        29.98S
Meriden        SUNNY     78  55  44 CALM      29.97F
New Haven      MOSUNNY   73  61  64 SW9       29.99R
Chester        FAIR      77  55  47 SW8       29.98S
Groton         SUNNY     73  60  63 SW10      29.96F
Wilimantic     SUNNY     79  56  45 W7        29.97F

 IN RI

CITY           SKY/WX    TMP DP  RH WIND       PRES   REMARKS
Providence     SUNNY     79  54  41 SW5       29.96F
Block Island   MOSUNNY   75  58  55 W6        29.98F
Westerly       MOSUNNY   80  58  46 VRB6      29.97F
 IN MA

CITY           SKY/WX    TMP DP  RH WIND       PRES   REMARKS
Boston         MOSUNNY   79  50  36 W13       29.94S
Worcester      SUNNY     74  51  44 SW12      29.98F
Westfield      MOSUNNY   77  56  48 S6        29.96F
Provincetown   MOSUNNY   76  58  53 W8        29.96S
Nantucket      SUNNY     78  55  44 N7        29.97S
$$

ANZ330-335-338-340-345-350-353-355-251600-
COASTAL MARINE OBSERVATIONS


STATION/POSITION TIME  SKY/WX   TEMP    WIND        PRES    VSBY  WAVE
                                AIR SEA DIR/SP/G                  HT/PER
                 (UTC)          (F)     (DEG/KT/KT) (MB)    (MI)  (FT/S)
NY HARB ENTRANCE 1350            70 68   CALM  /  2 1015.7          3/ 8
20 S FIRE ISLAND 1450            71 71  360/  2/  4 1015.3          3/ 8
GREAT SOUTH BAY  1415            72 77  190/  6/  8   N/A
23 SSW MONTAUK P 1350            67 65              1015.7          5/ 8
15 E BARNEGAT LI 1430               67                N/A           3/ 8
HUDSON CANYON    1350            69 68   30/  4/  6 1015.2          3/ 8
KINGS POINT      1430            76 66  200/  3/  4 1015.3
EXECUTION ROCKS  1445            75     100/  2/  4   N/A
CENTRAL LI SOUND NOT AVBL
EASTERN LI SOUND NOT AVBL
ROBBINS REEF     1430                   170/ 10/ 11 1016.1
$$


>>>>>>>>>>>>>>>>>>>>>>>>>>>> KEY <<<<<<<<<<<<<<<<<<<<<<<<<<<
>                                                          <
>     SKY/WX - Sky Condition/Present Weather               <
>     TMP    - Temperature in Fahrenheit                   <
>     DP     - Dew Point in Fahrenheit                     <
>     RH     - Relative Humidity in Percent                <
>     WIND   - Direction (from) and Speed in MPH           <
>     PRES   - Mean Sea Level Pressure (inches of Hg)      <
>     WCI    - Wind Chill Index                            <
>     VSB    - VISIBILITY IN MILES                         <
>     HX     - HEAT INDEX                                  <
>     TC     - TEMPERATURE IN CELSIUS                      <
>     VRB    - VARIABLE WIND DIRECTION                     <
>                                                          <
>>>>>>>>>>>>>>>>>>>>>>>>>>>> KEY <<<<<<<<<<<<<<<<<<<<<<<<<<<




USA.gov is the U.S. government's official web portal to all federal, state and local government web resources and services.